Weather History for KLWM - January, 2013

Change the Weather History Date:

Sunday, January 27, 2013

  Actual Average Record
Temperature  
Mean Temperature 22 °F -  
Max Temperature 30 °F 37 °F 58 °F (1950)
Min Temperature 14 °F 17 °F -7 °F (1935)
Degree Days  
Heating Degree Days 43    
Moisture  
Dew Point -3 °F    
Average Humidity 36    
Maximum Humidity 56    
Minimum Humidity 20    
Precipitation  
Precipitation 0.00 in - - ()
Sea Level Pressure  
Sea Level Pressure 30.38 in    
Wind  
Wind Speed 10 mph (WNW)    
Max Wind Speed 16 mph    
Max Gust Speed 32 mph    
Visibility 10 miles    
Events      
Averages and records for this station are not official NWS values.
T = Trace of Precipitation, MM = Missing Value Source: NWS Daily Summary

Daily Weather History Graph

Daily Weather History Graph

Search for Another Location

Airport or City:

Trip Planner

Search our weather history database for the weather conditions in past years. The results will help you decide how hot, cold, wet, or windy it might be!

Date:

Astronomy

Jan. 27, 2013 Rise Set
Actual Time 7:03 AM EST 4:51 PM EST
Civil Twilight 6:33 AM EST 5:21 PM EST
Nautical Twilight 5:59 AM EST 5:56 PM EST
Astronomical Twilight 5:25 AM EST 6:29 PM EST
Moon 5:45 PM EST 6:52 AM EST
Length of Visible Light 10h 48m
Length of Day
9h 47m
Full, 100% of the Moon is Illuminated
Jan 27
Full
Feb 3
Last Quarter
Feb 10
New
Feb 17
First Quarter
Feb 25
Full

Hourly Weather History & Observations

Time (EST) Temp. Windchill Dew Point Humidity Pressure Visibility Wind Dir Wind Speed Gust Speed Precip Events Conditions
12:54 AM 16.0 °F 3.6 °F -0.0 °F 49% 30.24 in 10.0 mi NW 10.4 mph 19.6 mph N/A   Clear
1:54 AM 15.1 °F 6.4 °F -0.0 °F 51% 30.27 in 10.0 mi NW 5.8 mph - N/A   Clear
2:54 AM 15.1 °F 4.2 °F 1.0 °F 54% 30.28 in 10.0 mi WNW 8.1 mph - N/A   Clear
3:54 AM 14.0 °F 2.0 °F 1.0 °F 56% 30.29 in 10.0 mi West 9.2 mph - N/A   Clear
4:54 AM 15.1 °F 3.3 °F 1.0 °F 54% 30.30 in 10.0 mi WNW 9.2 mph - N/A   Clear
5:54 AM 15.1 °F 3.3 °F -0.0 °F 51% 30.32 in 10.0 mi WNW 9.2 mph - N/A   Clear
6:54 AM 15.1 °F 4.2 °F -0.9 °F 49% 30.34 in 10.0 mi NW 8.1 mph 19.6 mph N/A   Clear
7:54 AM 15.1 °F 5.2 °F -0.0 °F 51% 30.37 in 10.0 mi WNW 6.9 mph - N/A   Clear
8:54 AM 18.0 °F 4.2 °F -2.9 °F 40% 30.39 in 10.0 mi NW 13.8 mph 32.2 mph N/A   Clear
9:54 AM 21.0 °F 7.1 °F -4.0 °F 33% 30.40 in 10.0 mi WNW 16.1 mph 24.2 mph N/A   Clear
10:54 AM 23.0 °F 10.6 °F -4.0 °F 31% 30.40 in 10.0 mi NW 13.8 mph 26.5 mph N/A   Clear
11:54 AM 26.1 °F 15.0 °F -4.0 °F 27% 30.40 in 10.0 mi WNW 12.7 mph 24.2 mph N/A   Clear
12:54 PM 28.0 °F 17.5 °F -2.9 °F 26% 30.39 in 10.0 mi NW 12.7 mph 25.3 mph N/A   Clear
1:54 PM 28.9 °F 18.6 °F -5.1 °F 23% 30.39 in 10.0 mi NW 12.7 mph 23.0 mph N/A   Clear
2:54 PM 30.0 °F 18.7 °F -6.0 °F 21% 30.38 in 10.0 mi NW 16.1 mph 23.0 mph N/A   Clear
3:54 PM 30.0 °F 20.0 °F -7.1 °F 20% 30.39 in 10.0 mi WNW 12.7 mph - N/A   Clear
4:54 PM 28.0 °F 18.1 °F -4.0 °F 25% 30.41 in 10.0 mi WNW 11.5 mph 18.4 mph N/A   Clear
5:54 PM 27.0 °F 17.3 °F -4.0 °F 26% 30.43 in 10.0 mi WNW 10.4 mph - N/A   Clear
6:54 PM 26.1 °F 15.6 °F -5.1 °F 26% 30.45 in 10.0 mi WNW 11.5 mph - N/A   Clear
7:54 PM 24.1 °F 17.0 °F -5.1 °F 28% 30.46 in 10.0 mi WNW 5.8 mph - N/A   Clear
8:54 PM 21.9 °F 14.5 °F -5.1 °F 30% 30.46 in 10.0 mi NW 5.8 mph - N/A   Clear
9:54 PM 19.9 °F 12.1 °F -4.0 °F 35% 30.46 in 10.0 mi WNW 5.8 mph - N/A   Clear
10:54 PM 19.9 °F 10.1 °F -6.0 °F 32% 30.47 in 10.0 mi West 8.1 mph - N/A   Clear
11:54 PM 19.9 °F 13.4 °F -6.0 °F 32% 30.46 in 10.0 mi WNW 4.6 mph - N/A   Mostly Cloudy